Flag for Switzerland Weather past 2 weeks in Aarau, Aargau, Switzerland

Now
48 °F

Cool.


Feels Like: 47 °F
Forecast: 35 / 59 °F
Wind: 3 mph from East

Location: Wynau

Current Time: Oct 26, 2014 at 7:27:53 AM

Latest Report: Oct 26, 2014 at 6:00 AM


Visibility: N/A

Pressure: 30.28 "Hg

Humidity: 97%

Dew point: 48 °F

Location of AarauLocation

Historic Weather in Aarau — Graph

°F

Aarau temperature yesterday

Maximum temperature yesterday: 53 °F (at 5:00 PM)
Minimum temperature yesterday: 43 °F (at 12:00 AM)
Average temperature yesterday: 47 °F

Past Weeks' High & Low Weather Summary

 TemperatureHumidityPressure
High70 °F (Oct 19, 4:00 PM)100% (Oct 11, 8:00 AM)30.34 "Hg (Oct 11, 8:00 AM)
Low35 °F (Oct 24, 5:00 AM)50% (Oct 21, 3:00 PM)29.76 "Hg (Oct 15, 5:00 PM)
Average54 °F89%30.05 "Hg
* Reported Oct 11 7:00 AM — Oct 26 6:00 AM, Aarau, Weather by CustomWeather, © 2014

Note: Actual official high and low records may vary slightly from our data, if they occured in-between our weather recording intervals... More about our weather records

Advertising

Aarau weather history for previous 24 hours

 ConditionsComfort  
Time TempWeatherWind HumidityBarometerVisibility
6:00 AM
Oct 26
48 °FCool.3 mph97%30.28 "HgN/A
5:00 AM48 °FCool.3 mph99%30.28 "HgN/A
4:00 AM48 °FCool.2 mph99%30.28 "HgN/A
3:00 AM48 °FCool.1 mph99%30.28 "HgN/A
2:00 AM48 °FCool.1 mph99%30.29 "HgN/A
2:00 AM48 °FCool.1 mph98%30.28 "HgN/A
1:00 AM48 °FCool.1 mph99%30.27 "HgN/A
12:00 AM47 °FCool.1 mph99%30.26 "HgN/A
11:00 PM
Oct 25
47 °FCool.1 mph99%30.25 "HgN/A
10:00 PM48 °FCool.1 mph97%30.24 "HgN/A
9:00 PM49 °FCool.1 mph99%30.22 "HgN/A
8:00 PM49 °FCool.No wind98%30.21 "HgN/A
7:00 PM49 °FCool.1 mph96%30.20 "HgN/A
6:00 PM51 °FCool.1 mph95%30.18 "HgN/A
5:00 PM53 °FCool.No wind88%30.17 "HgN/A
4:00 PM52 °FCool.1 mph83%30.17 "HgN/A
3:00 PM52 °FCool.3 mph82%30.16 "HgN/A
2:00 PM52 °FCool.2 mph81%30.16 "HgN/A
1:00 PM51 °FCool.1 mph89%30.17 "HgN/A
12:00 PM49 °FCool.No wind90%30.18 "HgN/A
11:00 AM48 °FCool.1 mph91%30.18 "HgN/A
10:00 AM47 °FCool.2 mph95%30.17 "HgN/A
9:00 AM45 °FCool.2 mph96%30.17 "HgN/A
8:00 AM44 °FQuite cool.1 mph97%30.16 "HgN/A
7:00 AM44 °FQuite cool.No wind96%30.16 "HgN/A
Weather by CustomWeather, © 2014

See weather overviewHow to use our weather pages